[[{"header":{"parameterUnit":"m.s-1","parameterCategory":1,"la1":30.2992,"la2":30.254,"lo1":-89.0895,"lo2":-89.0443,"dy":0.0025,"dx":0.0025,"nx":19,"ny":19,"refTime":"2026-05-08T03:00:00:Z","depth":0,"parameterNumber":2,"parameterNumberName":"U-component_of_WINDS"},"data":[0,0,0,-1.8144,-1.8144,-1.8163,-1.8163,-1.8208,-1.8209,0,0,0,0,0,0,0,0,0,0,0,-1.815,-1.8151,-1.8143,-1.8144,-1.8163,-1.8163,-1.8208,-1.8209,0,0,0,0,0,0,0,0,0,0,0,-1.815,-1.8151,-1.8152,-1.8144,-1.8163,-1.8163,-1.8208,-1.8186,0,0,0,0,0,0,0,0,0,0,-1.8165,-1.8183,-1.8151,-1.8152,-1.8145,-1.8163,-1.8163,-1.8185,-1.8188,-1.8208,0,-1.823,0,-1.822,-1.8213,-1.8213,0,0,0,-1.8135,-1.8181,-1.8174,-1.8152,-1.8145,-1.8163,-1.8152,-1.8186,-1.8189,-1.8212,-1.823,-1.8231,-1.8221,-1.8213,-1.8214,-1.8362,-1.8363,0,0,-1.8134,-1.8161,-1.8172,-1.8177,-1.8175,-1.8151,-1.8153,-1.8188,-1.8209,-1.823,-1.8232,-1.8221,-1.8214,-1.8214,-1.8361,-1.8363,0,0,0,-1.8137,-1.816,-1.8153,-1.8176,-1.8177,-1.8152,-1.8154,-1.8208,-1.8203,-1.8232,-1.8222,-1.8214,-1.8215,-1.836,-1.8362,-1.8443,0,0,0,-1.8136,-1.8162,-1.8153,-1.8169,-1.8177,-1.8193,-1.8173,-1.8201,-1.8204,-1.8222,-1.8214,-1.8216,-1.8359,-1.8361,-1.8438,-1.8478,0,0,0,-1.8145,-1.8163,-1.817,-1.817,-1.8179,-1.8191,-1.8188,-1.8201,-1.8198,-1.8213,-1.8216,-1.8358,-1.836,-1.8434,-1.847,-1.8525,0,0,0,-1.8162,-1.8242,-1.8171,-1.8256,-1.8179,-1.8241,-1.8188,-1.8233,-1.8255,-1.8214,-1.8359,-1.8362,-1.8432,-1.8466,-1.8521,-1.8577,-1.8603,0,0,-1.8277,-1.8257,-1.8304,-1.8242,-1.8323,-1.8236,-1.8329,-1.8325,-1.8303,-1.8344,-1.8347,-1.844,-1.847,-1.8524,-1.8734,-1.8755,0,0,0,-1.835,-1.8385,-1.84,-1.8423,-1.8421,-1.8423,-1.8402,-1.84,-1.8434,-1.8329,-1.8472,-1.849,-1.8521,-1.8547,-1.8564,-1.8589,-1.8374,-1.8374,-1.8374,-1.8553,-1.8519,-1.8596,-1.8564,-1.8587,-1.8563,-1.8579,-1.8573,-1.8533,-1.8567,-1.858,-1.8711,-1.8743,-1.8755,-1.8782,-1.8605,-1.8606,-1.8606,-1.8606,-1.872,-1.8765,-1.8708,-1.8763,-1.8726,-1.8772,-1.8753,-1.8723,-1.8761,-1.8699,-1.8724,-1.8662,-1.8779,-1.8801,-1.8612,-1.8611,-1.861,-1.861,-1.8609,-1.8851,-1.8866,-1.8862,-1.889,-1.8916,-1.8881,-1.892,-1.8885,-1.8853,-1.8878,-1.8888,-1.8887,-1.8882,-1.8885,-1.8885,-1.8886,-1.8886,-1.8886,-1.8887,-1.8989,-1.8981,-1.9017,-1.9022,-1.9031,-1.9039,-1.9016,-1.9025,-1.9026,-1.8998,-1.8998,-1.8955,-1.8796,-1.8758,-1.8894,-1.8892,-1.8891,-1.8891,-1.889,-1.9174,-1.9126,-1.9183,-1.9193,-1.9194,-1.9223,-1.9177,-1.9198,-1.92,-1.922,-1.9171,-1.9059,-1.9035,-1.9021,-1.899,-1.9177,-1.9177,-1.9177,-1.9177,-1.9286,-1.927,-1.932,-1.9337,-1.935,-1.9315,-1.9381,-1.9363,-1.9338,-1.9337,-1.9304,-1.9259,-1.9246,-1.923,-1.9211,-1.9181,-1.9414,-1.9414,-1.9414,-1.9399,-1.9382,-1.9445,-1.9418,-1.9417,-1.9416,-1.9478,-1.9501,-1.9462,-1.9423,-1.9336,-1.9326,-1.9252,-1.9229,-1.9191,-1.9163,-1.9107,0,0]},{"header":{"parameterUnit":"m.s-1","parameterCategory":1,"la1":30.2992,"la2":30.254,"lo1":-89.0895,"lo2":-89.0443,"dy":0.0025,"dx":0.0025,"nx":19,"ny":19,"refTime":"2026-05-08T03:00:00:Z","depth":0,"parameterNumber":3,"parameterNumberName":"V-component_of_WINDS"},"data":[0,0,0,-3.6203,-3.6205,-3.627,-3.6271,-3.6352,-3.6353,0,0,0,0,0,0,0,0,0,0,0,-3.6185,-3.6186,-3.6203,-3.6205,-3.627,-3.6271,-3.6352,-3.6353,0,0,0,0,0,0,0,0,0,0,0,-3.6185,-3.6185,-3.6186,-3.6205,-3.627,-3.6271,-3.6352,-3.6303,0,0,0,0,0,0,0,0,0,0,-3.6239,-3.6224,-3.6185,-3.6186,-3.6206,-3.627,-3.6271,-3.63,-3.6306,-3.6322,0,-3.6339,0,-3.6348,-3.6358,-3.6359,0,0,0,-3.6204,-3.6219,-3.6236,-3.6186,-3.6206,-3.627,-3.624,-3.6303,-3.6309,-3.6329,-3.6341,-3.6344,-3.6349,-3.6359,-3.6359,-3.6464,-3.6464,0,0,-3.62,-3.6197,-3.6232,-3.624,-3.6233,-3.6238,-3.6242,-3.6307,-3.6318,-3.6341,-3.6345,-3.635,-3.6359,-3.636,-3.6463,-3.6464,0,0,0,-3.619,-3.6194,-3.621,-3.6237,-3.6249,-3.624,-3.6245,-3.6315,-3.632,-3.6346,-3.6351,-3.636,-3.6361,-3.6463,-3.6464,-3.6488,0,0,0,-3.6188,-3.6189,-3.6208,-3.6207,-3.6248,-3.6284,-3.6252,-3.6316,-3.6323,-3.6351,-3.636,-3.6362,-3.6462,-3.6463,-3.6486,-3.65,0,0,0,-3.618,-3.6188,-3.6198,-3.6207,-3.6235,-3.6283,-3.6292,-3.6318,-3.6326,-3.6359,-3.6362,-3.6462,-3.6463,-3.6484,-3.6497,-3.6526,0,0,0,-3.617,-3.6219,-3.6198,-3.6254,-3.6234,-3.6298,-3.6291,-3.6338,-3.6369,-3.636,-3.6462,-3.6463,-3.6484,-3.6495,-3.6524,-3.6549,-3.6559,0,0,-3.6229,-3.6226,-3.6258,-3.6242,-3.6309,-3.6288,-3.6358,-3.6388,-3.6393,-3.6439,-3.6442,-3.6487,-3.6497,-3.6525,-3.6621,-3.6629,0,0,0,-3.6276,-3.6299,-3.6318,-3.6348,-3.6373,-3.6394,-3.6415,-3.6425,-3.6465,-3.6417,-3.6505,-3.6511,-3.6528,-3.654,-3.6547,-3.6561,-3.6469,-3.6469,-3.6469,-3.6354,-3.6359,-3.6413,-3.6425,-3.6454,-3.6474,-3.6497,-3.6515,-3.6511,-3.6531,-3.6545,-3.6603,-3.6617,-3.6622,-3.6637,-3.6559,-3.6559,-3.656,-3.656,-3.644,-3.6473,-3.6467,-3.6517,-3.6521,-3.6562,-3.6582,-3.6578,-3.6615,-3.6593,-3.6608,-3.6583,-3.6631,-3.6644,-3.6561,-3.6561,-3.6561,-3.6561,-3.6561,-3.6491,-3.6508,-3.6522,-3.6564,-3.6596,-3.6606,-3.6643,-3.6645,-3.6647,-3.6662,-3.6675,-3.6675,-3.6673,-3.6668,-3.6668,-3.6669,-3.6669,-3.6669,-3.6669,-3.6539,-3.6553,-3.6585,-3.6615,-3.6634,-3.6658,-3.6678,-3.6696,-3.6716,-3.6714,-3.6714,-3.6706,-3.6636,-3.6617,-3.6672,-3.6672,-3.6671,-3.6671,-3.6671,-3.6623,-3.6604,-3.6653,-3.6672,-3.6706,-3.6737,-3.6739,-3.6775,-3.6789,-3.6807,-3.6796,-3.6744,-3.674,-3.6734,-3.6719,-3.6796,-3.6796,-3.6796,-3.6796,-3.6665,-3.6664,-3.6713,-3.6743,-3.6772,-3.6779,-3.6831,-3.6846,-3.6858,-3.6867,-3.6856,-3.6836,-3.683,-3.6829,-3.6821,-3.6807,-3.6905,-3.6906,-3.6906,-3.6716,-3.6717,-3.6763,-3.6776,-3.6803,-3.6825,-3.6874,-3.6906,-3.6916,-3.691,-3.6873,-3.6869,-3.6837,-3.6826,-3.6819,-3.6807,-3.6781,0,0]}]]